Weather History for Jefferson City, MO

Change the Weather History Date:

Monday, November 12, 2012

  Actual Average Record
Temperature  
Mean Temperature 37 °F -  
Max Temperature 46 °F 53 °F 84 °F (1989)
Min Temperature 28 °F 31 °F 14 °F (1940)
Degree Days  
Heating Degree Days 28    
Moisture  
Dew Point 21 °F    
Average Humidity 57    
Maximum Humidity 75    
Minimum Humidity 34    
Precipitation  
Precipitation 0.00 in - - ()
Sea Level Pressure  
Sea Level Pressure 30.34 in    
Wind  
Wind Speed 7 mph (West)    
Max Wind Speed 21 mph    
Max Gust Speed 26 mph    
Visibility 10 miles    
Events Snow    
Averages and records for this station are not official NWS values.
T = Trace of Precipitation, MM = Missing Value Source: NWS Daily Summary

Daily Weather History Graph

Daily Weather History Graph

Search for Another Location

Airport:

Trip Planner

Search our weather history database for the weather conditions in past years. The results will help you decide how hot, cold, wet, or windy it might be!

Date:

Astronomy

Nov. 12, 2012 Rise Set
Actual Time 6:47 AM CST 4:57 PM CST
Civil Twilight 6:19 AM CST 5:25 PM CST
Nautical Twilight 5:47 AM CST 5:57 PM CST
Astronomical Twilight 5:16 AM CST 6:28 PM CST
Moon 5:14 AM CST (11/12) 4:02 PM CST (11/12)
Length of Visible Light 11h 05m
Length of Day
10h 09m
Waning Crescent, 2% of the Moon is Illuminated
Nov 12
Waning Crescent
Nov 13
New
Nov 20
First Quarter
Nov 28
Full
Dec 6
Last Quarter

Hourly Weather History & Observations

Time (CST) Temp. Windchill Dew Point Humidity Pressure Visibility Wind Dir Wind Speed Gust Speed Precip Events Conditions
12:12 AM 33.8 °F 25.8 °F 24.8 °F 70% 30.19 in 9.0 mi NW 10.4 mph 24.2 mph 0.00 in Snow Light Snow
12:53 AM 32.0 °F 26.4 °F 23.0 °F 69% 30.21 in 10.0 mi NW 5.8 mph - 0.00 in   Clear
1:53 AM 30.9 °F 26.2 °F 23.0 °F 72% 30.24 in 10.0 mi WNW 4.6 mph - N/A   Partly Cloudy
2:53 AM 30.0 °F 23.2 °F 21.9 °F 72% 30.25 in 10.0 mi West 6.9 mph - N/A   Clear
3:53 AM 28.9 °F 23.9 °F 21.0 °F 72% 30.26 in 10.0 mi WNW 4.6 mph - N/A   Clear
4:53 AM 28.0 °F 21.7 °F 21.0 °F 75% 30.29 in 10.0 mi West 5.8 mph - N/A   Clear
6:53 AM 28.0 °F 22.8 °F 19.9 °F 72% 30.34 in 10.0 mi WNW 4.6 mph - N/A   Clear
7:53 AM 30.0 °F 24.1 °F 21.0 °F 69% 30.35 in 10.0 mi West 5.8 mph - N/A   Clear
8:53 AM 34.0 °F 29.8 °F 19.9 °F 56% 30.36 in 10.0 mi West 4.6 mph - N/A   Clear
9:53 AM 37.0 °F 31.0 °F 18.0 °F 46% 30.37 in 10.0 mi WSW 8.1 mph - N/A   Clear
10:53 AM 41.0 °F 34.3 °F 21.0 °F 45% 30.37 in 10.0 mi West 11.5 mph 20.7 mph N/A   Clear
11:53 AM 44.1 °F 37.7 °F 19.9 °F 38% 30.35 in 10.0 mi West 12.7 mph 24.2 mph N/A   Clear
12:53 PM 45.0 °F 38.9 °F 18.0 °F 34% 30.32 in 10.0 mi WNW 12.7 mph 23.0 mph N/A   Clear
1:53 PM 46.0 °F 38.3 °F 19.0 °F 34% 30.32 in 10.0 mi WNW 20.7 mph 26.5 mph N/A   Clear
2:53 PM 46.0 °F 39.6 °F 19.0 °F 34% 30.33 in 10.0 mi West 15.0 mph 21.9 mph N/A   Clear
3:53 PM 45.0 °F 38.9 °F 19.9 °F 37% 30.34 in 10.0 mi West 12.7 mph 21.9 mph N/A   Clear
4:53 PM 44.1 °F 39.0 °F 21.0 °F 40% 30.35 in 10.0 mi West 9.2 mph - N/A   Clear
5:53 PM 41.0 °F 36.4 °F 21.0 °F 45% 30.38 in 10.0 mi West 6.9 mph - N/A   Clear
6:53 PM 39.9 °F - 21.9 °F 49% 30.39 in 10.0 mi Calm Calm - N/A   Clear
7:53 PM 37.0 °F - 23.0 °F 57% 30.41 in 10.0 mi Calm Calm - N/A   Clear
8:53 PM 36.0 °F - 23.0 °F 59% 30.42 in 10.0 mi Calm Calm - N/A   Clear
9:53 PM 32.0 °F - 24.1 °F 73% 30.43 in 10.0 mi Calm Calm - N/A   Clear
10:53 PM 30.9 °F - 23.0 °F 72% 30.44 in 10.0 mi Calm Calm - N/A   Clear
11:53 PM 28.9 °F - 21.9 °F 75% 30.43 in 10.0 mi Calm Calm - N/A   Clear